User: anonymous   Login
Location: Camp Creek
(33.9000°N, 111.8167°W)
Time: 23:46:06
(UTC-07:00)
Language:

DELTA 2 R/B (1) - Orbit

View from above orbital plane
View from above orbital plane
View from above satellite
View from above satellite

Ground track
Ground track

The orbit data is extracted from the following two-line orbital elements,

1 27665U 03005C   15241.95003206 -.00000056 +00000-0 +11679-4 0  9992
2 27665 039.5749 216.5985 0008805 313.6410 076.8667 14.28356546656843
Epoch (UTC): 29 August 2015 22:48:02
Eccentricity: 0.0008805
inclination: 39.5749°
perigee height: 791 km
apogee height: 803 km
right ascension of ascending node: 216.5985°
argument of perigee: 313.6410°
revolutions per day: 14.28356546
mean anomaly at epoch: 76.8667°
orbit number at epoch: 65684

The dashed part of the orbit path shows where the satellite is in the earth's shadow,  

DLR